Preview of NWS' New Version of Forecast
This preview is not operational and should not be used for support decisions.
Latest weather observations around

WX6HNX-15 Boron (AU536)

Using English Units (Switch to International System of Units)
Date/ Time (PDT) Wind (mph) Vis. (mi) Weather Sky Cond. Temp (°F) Rel. Humidity Wind Chill (°F) Heat Index (°F) Pressure Precip. (in)
Air Dwpt 6 hour Altimeter (inHg) Sea level (inHg) 1 hr 3 hr 6 hr
Max Min
Jun 19 02:09 SW 9   Clear   76 52     43%   75 29.9        
Jun 19 02:03 SW 6   Clear   76 52     43%   75 29.91        
Jun 19 01:57 SW 8   Clear   77 52     42%   76 29.91        
Jun 19 01:54 SW 8   Clear   77 52     42%   76 29.91        
Jun 19 01:48 WSW 9   Clear   77 52     42%   76 29.91        
Jun 19 01:42 SW 9   Clear   77 52     42%   76 29.91        
Jun 19 01:39 WSW 10   Clear   77 52     42%   76 29.91        
Jun 19 01:33 SW 9   Clear   77 51     41%   76 29.91        
Jun 19 01:27 WSW 8   Clear   77 51     41%   76 29.91        
Jun 19 01:24 SW 10   Clear   77 51     41%   76 29.91        
Jun 19 01:18 SW 12   Clear   78 52     40%   77 29.91        
Jun 19 01:11 WSW 11   Clear   78 52     40%   77 29.91        
Jun 19 01:08 WSW 8   Clear   78 52     40%   77 29.91        
Jun 19 01:05 WSW 9   Clear   78 52     40%   77 29.91        
Jun 19 00:59 WSW 8   Clear   78 52     40%   77 29.91        
Jun 19 00:54 SW 9   Clear   78 52     40%   77 29.91        
Jun 19 00:48 SW 10   Clear   78 51     39%   77 29.91        
Jun 19 00:45 SW 11   Clear   78 51     39%   77 29.91        
Jun 19 00:39 WSW 9   Clear   78 51     39%   77 29.91        
Jun 19 00:32 SW 10   Clear   78 51     39%   77 29.91        
Jun 19 00:29 WSW 11   Clear   78 51     39%   77 29.91        
Jun 19 00:23 SW 9   Clear   79 52     39%   78 29.91        
Jun 19 00:20 SW 11   Clear   79 52     39%   78 29.91        
Jun 19 00:14 SW 10   Clear   79 52     39%   78 29.91        
Jun 19 00:08 SW 11   Clear   79 52     39%   78 29.91        
Jun 19 00:04 WSW 9   Clear   79 51     38%   78 29.91        
Jun 18 23:58 WSW 8   Clear   79 51     38%   78 29.91        
Jun 18 23:52 SW 11   Clear   79 51     38%   78 29.91        
Jun 18 23:47 SW 11   Clear   79 51     38%   78 29.91        
Jun 18 23:44 SW 11   Clear   79 51     38%   78 29.91        
Jun 18 23:38 WSW 11   Clear   79 51     38%   78 29.91        
Jun 18 23:32 WSW 10   Clear   79 51     38%   78 29.91        
Jun 18 23:29 WSW 10   Clear   79 50     37%   78 29.91        
Jun 18 23:23 WSW 11   Clear   79 50     37%   78 29.91        
Jun 18 23:11 WSW 10   Clear   80 51     36%   79 29.91        
Jun 18 23:08 SW 13   Clear   80 51     36%   79 29.91        
Jun 18 23:02 SW 10   Clear   80 51     36%   79 29.91        
Jun 18 22:56 WSW 9   Clear   80 50     35%   79 29.91        
Jun 18 22:53 SW 12   Clear   80 50     35%   79 29.91        
Jun 18 22:47 WSW 11   Clear   81 51     35%   80 29.91        
Jun 18 22:43 SW 10   Clear   81 51     35%   80 29.91        
Jun 18 22:31 SW 11   Clear   81 50     34%   80 29.91        
Jun 18 22:28 SW 11   Clear   81 50     34%   80 29.91        
Jun 18 22:22 SW 14   Clear   81 49     33%   80 29.91        
Jun 18 22:19 SW 15   Clear   81 49     33%   80 29.91        
Jun 18 19:50 SW 8   Clear   90 52     28%   88 29.87        
Jun 18 19:44 SW 12   Clear   91 52     27%   88 29.87        
Jun 18 19:36 WSW 11   Clear   91 52     27%   88 29.87        
Jun 18 19:33 WSW 10   Clear   91 52     27%   88 29.87        
Jun 18 19:30 WSW 12   Clear   92 53     27%   90 29.87        
Jun 18 19:18 WSW 14   Clear   93 53     26%   91 29.86        
Jun 18 19:12 SW 10   Clear   94 53     25%   91 29.86        
Jun 18 19:00 NNE 1   Clear   96 37     13%   91 29.86        
Jun 18 18:30 NNW 6   Clear   98 37     12%   93 29.85        
Jun 18 18:24 NNW 7   Clear   99 37     12%   94 29.85        
Jun 18 14:34 ENE 9   Clear   101 41     13%   96 29.89        
Jun 18 13:21 WNW 2   Clear   98 44     16%   94 29.91        
Jun 18 13:12 WSW 5   Clear   98 44     16%   94 29.91        
Jun 18 13:06 SSW 8   Clear   98 44     16%   94 29.92        
Jun 18 13:03 S 7   Clear   98 44     16%   94 29.92        
Jun 18 12:31 SE 2   Clear   96 43     16%   92 29.93        
Jun 18 12:28 SE 2   Clear   97 43     16%   93 29.93        
Jun 18 12:19 E 3   Clear   98 44     16%   94 29.93        
Jun 18 12:07 SSE 1   Clear   97 45     17%   93 29.93        
Jun 18 11:44 S 4   Clear   96 44     17%   92 29.94        
Jun 18 11:38 NNE 1   Clear   95 45     18%   91 29.94        
Jun 18 11:32 SE 7   Clear   95 45     18%   91 29.94        
Jun 18 11:26 ESE 5   Clear   96 46     18%   92 29.95        
Jun 18 11:20 Calm   Clear   97 45     17%   93 29.94        
Jun 18 11:11 ESE 8   Clear   97 45     17%   93 29.95        
Jun 18 10:59 Calm   Clear   95 45     18%   91 29.94        
Jun 18 10:08 NNW 2   Clear   89 49     25%   86 29.95        
Jun 18 09:35 W 2   Clear   85 49     29%   83 29.96        
Jun 18 09:32 WNW 2   Clear   85 50     30%   83 29.96        
Jun 18 09:29 WNW 2   Clear   85 49     29%   83 29.96        
Jun 18 09:23 WNW 1   Clear   84 50     31%   82 29.96        
Jun 18 09:11 W 2   Clear   83 51     33%   81 29.96        
Jun 18 09:01 W 3   Clear   82 52     35%   81 29.96        
Jun 18 08:58 W 3   Clear   81 52     36%   80 29.96        
Jun 18 08:52 WNW 3   Clear   81 52     37%   80 29.96        
Jun 18 08:43 W 3   Clear   79 51     38%   78 29.96        
Jun 18 08:40 W 3   Clear   79 52     39%   78 29.96        
Jun 18 08:31 WNW 3   Clear   78 52     41%   77 29.96        
Jun 18 08:28 WNW 2   Clear   78 52     41%   77 29.96        
Jun 18 08:25 WNW 4   Clear   78 53     42%   77 29.96        
Jun 18 08:19 W 3   Clear   77 53     44%   76 29.96        
Jun 18 08:07 W 5   Clear   76 53     45%   75 29.93        
Jun 18 08:04 WNW 5   Clear   76 54     46%   75 29.93        
Jun 18 07:55 WNW 7   Clear   75 53     47%   74 29.93        
Jun 18 07:49 WNW 4   Clear   74 54     49%   73 29.93        
Jun 18 07:43 W 5   Clear   74 54     50%   73 29.93        
Jun 18 07:37 W 5   Clear   73 53     50%   72 29.93        
Jun 18 07:34 W 6   Clear   73 53     50%   72 29.92        
Jun 18 07:28 WNW 4   Clear   72 53     52%   71 29.92        
Jun 18 07:22 W 4   Clear   72 53     52%   71 29.92        
Jun 18 07:19 W 3   Clear   71 52     52%   70 29.92        
Jun 18 07:13 W 3   Clear   71 54     54%   70 29.92        
Jun 18 07:07 W 3   Clear   70 53     55%     29.91        
Jun 18 07:04 W 1   Clear   69 52     55%     29.92        
Jun 18 06:56 W 1   Clear   68 52     57%     29.91        
Jun 18 06:53 W 2   Clear   68 52     57%     29.91        
Jun 18 06:47 Calm   Clear   67 52     58%     29.91        
Jun 18 06:44 Calm   Clear   66 51     59%     29.91        
Jun 18 06:38 Calm   Clear   66 52     60%     29.91        
Jun 18 06:32 Calm   Clear   65 51     61%     29.91        
Jun 18 06:29 Calm   Clear   64 50     61%     29.91        
Jun 18 06:23 Calm   Clear   64 51     62%     29.91        
Jun 18 06:17 Calm   Clear   63 50     62%     29.91        
Jun 18 06:14 Calm   Clear   63 50     63%     29.91        
Jun 18 06:08 Calm   Clear   63 50     62%     29.9        
Jun 18 06:02 Calm   Clear   63 50     62%     29.9        
Jun 18 05:59 Calm   Clear   63 49     61%     29.9        
Jun 18 05:21 W 1   Clear   65 49     57%     29.89        
Jun 18 05:06 Calm   Clear   66 50     56%     29.88        
Jun 18 04:48 W 1   Clear   67 51     56%     29.88        
Jun 18 04:42 W 1   Clear   67 51     56%     29.88        
Jun 18 04:39 W 2   Clear   67 51     56%     29.88        
Jun 18 04:33 W 1   Clear   67 51     56%     29.87        
Jun 18 04:27 Calm   Clear   67 51     56%     29.87        
Jun 18 04:24 Calm   Clear   67 51     56%     29.87        
Jun 18 04:18 Calm   Clear   67 51     56%     29.87        
Jun 18 04:12 WNW 1   Clear   67 51     56%     29.87        
Jun 18 04:09 Calm   Clear   66 50     56%     29.87        
Jun 18 04:03 WNW 2   Clear   66 50     56%     29.87        
Jun 18 03:57 WNW 1   Clear   66 50     56%     29.86        
Jun 18 03:54 Calm   Clear   66 50     56%     29.86        
Jun 18 03:48 Calm   Clear   66 49     55%     29.86        
Jun 18 03:42 WNW 1   Clear   67 49     53%     29.86        
Jun 18 03:39 Calm   Clear   67 49     53%     29.86        
Jun 18 03:33 Calm   Clear   67 49     53%     29.86        
Jun 18 03:30 Calm   Clear   68 50     53%     29.86        
Jun 18 03:24 Calm   Clear   68 50     53%     29.86        
Jun 18 03:16 Calm   Clear   68 50     52%     29.87        
Jun 18 03:13 Calm   Clear   68 50     52%     29.87        
Jun 18 03:07 Calm   Clear   68 49     51%     29.86        
Jun 18 03:04 WNW 1   Clear   68 49     51%     29.86        
Jun 18 02:58 W 4   Clear   69 50     51%     29.86        
Jun 18 02:52 W 6   Clear   69 50     50%     29.86        
Jun 18 02:49 W 6   Clear   69 50     50%     29.86        
Jun 18 02:43 W 5   Clear   69 50     50%     29.86        
Jun 18 02:37 WNW 5   Clear   69 49     49%     29.86        
Jun 18 02:34 WNW 6   Clear   69 49     49%     29.86        
Jun 18 02:28 W 5   Clear   70 49     48%     29.86        
Jun 18 02:22 WNW 4   Clear   70 49     48%     29.86        
Jun 18 02:19 WNW 3   Clear   70 49     48%     29.86        
Jun 18 02:13 W 7   Clear   70 50     49%     29.86        
Jun 18 02:04 WNW 6   Clear   70 49     47%     29.86        
Jun 18 01:58 W 5   Clear   70 49     48%     29.85        
Jun 18 01:52 WNW 4   Clear   70 49     47%     29.86        
Jun 18 01:49 WNW 4   Clear   70 49     47%     29.86        
Jun 18 01:43 WNW 3   Clear   71 49     46%   70 29.86        
Jun 18 01:37 W 8   Clear   71 50     47%   70 29.86        
Jun 18 01:34 WNW 6   Clear   71 50     47%   70 29.86        
Jun 18 01:28 WNW 6   Clear   71 50     47%   70 29.86        
Jun 18 01:19 WNW 5   Clear   71 49     46%   70 29.86        
Jun 18 01:13 WNW 7   Clear   71 49     46%   70 29.86        
Jun 18 01:07 WNW 7   Clear   71 49     46%   70 29.85        
Jun 18 01:04 W 8   Clear   71 50     47%   70 29.85        
Jun 18 00:58 W 7   Clear   71 49     46%   70 29.85        
Jun 18 00:52 NW 6   Clear   72 50     46%   71 29.85        
Jun 18 00:49 NW 5   Clear   72 50     46%   71 29.85        
Jun 18 00:43 WNW 7   Clear   72 49     45%   71 29.86        
Jun 18 00:37 WNW 6   Clear   72 49     45%   71 29.86        
Jun 18 00:34 W 7   Clear   72 49     45%   71 29.86        
Jun 18 00:28 W 6   Clear   73 50     44%   72 29.86        
Jun 18 00:22 W 9   Clear   73 50     44%   72 29.86        
Jun 18 00:19 WNW 6   Clear   73 49     43%   72 29.86        
Jun 18 00:13 WNW 6   Clear   74 49     42%   73 29.86        
Jun 18 00:04 W 9   Clear   75 49     40%   74 29.85        
Jun 17 23:58 WNW 11   Clear   76 49     38%   75 29.85        
Jun 17 23:52 NW 3   Clear   78 48     35%   77 29.86        
Jun 17 23:49 NW 8   Clear   79 47     33%   78 29.86        
Jun 17 23:43 NW 9   Clear   80 46     30%   79 29.85        
Jun 17 23:37 NW 4   Clear   80 46     30%   79 29.85        
Jun 17 23:34 NW 11   Clear   80 45     29%   79 29.85        
Jun 17 23:28 NW 4   Clear   80 46     30%   79 29.85        
Jun 17 23:22 WNW 11   Clear   80 45     29%   79 29.85        
Jun 17 23:19 NW 8   Clear   80 45     29%   79 29.85        
Jun 17 23:13 NW 9   Clear   79 46     31%   78 29.86        
Jun 17 23:07 NW 7   Clear   78 47     33%   77 29.86        
Jun 17 23:04 WNW 4   Clear   78 47     34%   77 29.86        
Jun 17 22:58 WNW 7   Clear   77 47     35%   76 29.86        
Jun 17 22:52 WSW 3   Clear   76 49     38%   75 29.86        
Jun 17 22:47 SW 2   Clear   76 49     38%   75 29.86        
Jun 17 22:44 WSW 3   Clear   75 48     39%   74 29.86        
Jun 17 22:29 WNW 4   Clear   74 49     41%   73 29.86        
Jun 17 16:20 ENE 5   Clear   100 34     10%   94 29.77        
Jun 17 16:11 ENE 5   Clear   100 34     10%   94 29.77        
Jun 17 15:56 NNE 5   Clear   99 35     11%   94 29.77        
Jun 17 15:33 Calm   Clear   100 36     11%   94 29.78        
Jun 17 15:15 ENE 3   Clear   99 40     13%   94 29.79        
Jun 17 14:58 ESE 4   Clear   98 39     13%   93 29.79        
Jun 17 14:37 SW 2   Clear   97 40     14%   92 29.79        
Jun 17 13:46 ESE 7   Clear   96 44     17%   92 29.81        
Jun 17 09:36 E 1   Clear   83 50     32%   81 29.86        
Jun 17 08:02 WSW 1   Clear   72 49     45%   71 29.85        
Jun 17 07:38 W 1   Clear   70 49     47%     29.85        
Jun 17 05:42 Calm   Clear   62 48     61%     29.82        
Jun 17 05:39 Calm   Clear   62 48     61%     29.82        
Jun 17 05:33 Calm   Clear   62 48     60%     29.82        
Jun 17 05:30 SE 1   Clear   62 48     60%     29.82        
Jun 17 05:19 Calm   Clear   62 47     59%     29.81        
Jun 17 05:13 SE 2   Clear   63 48     59%     29.81        
Jun 17 05:07 SE 2   Clear   63 48     58%     29.81        
Jun 17 05:04 ESE 1   Clear   63 48     58%     29.81        
Jun 17 04:58 ESE 1   Clear   64 48     56%     29.81        
Jun 17 04:43 Calm   Clear   65 48     54%     29.8        
Jun 17 04:37 Calm   Clear   66 49     54%     29.8        
Jun 17 04:34 Calm   Clear   66 49     54%     29.8        
Jun 17 04:25 Calm   Clear   67 49     52%     29.8        
Jun 17 04:22 Calm   Clear   67 49     52%     29.8        
Jun 17 04:08 SW 1   Clear   68 49     51%     29.8        
Jun 17 04:02 WSW 1   Clear   68 49     51%     29.8        
Jun 17 03:59 WSW 1   Clear   68 49     51%     29.8        
Jun 17 03:53 WSW 4   Clear   68 49     51%     29.79        
Jun 17 03:47 Calm   Clear   68 50     52%     29.8        
Jun 17 03:44 SW 3   Clear   67 49     52%     29.8        
Jun 17 03:38 W 2   Clear   67 49     53%     29.8        
Jun 17 03:32 NNW 1   Clear   68 50     52%     29.8        
Jun 17 03:29 NW 1   Clear   68 50     52%     29.8        
Jun 17 03:23 SW 4   Clear   67 49     53%     29.8        
Jun 17 03:14 Calm   Clear   67 49     53%     29.8        
Jun 17 03:07 W 1   Clear   68 50     53%     29.8        
Jun 17 03:04 WSW 3   Clear   68 50     53%     29.8        
Jun 17 02:58 WNW 3   Clear   68 50     52%     29.8        
Jun 17 02:52 WNW 5   Clear   68 49     51%     29.8        
Jun 17 02:49 W 6   Clear   68 49     51%     29.8        
Jun 17 02:43 W 5   Clear   69 50     51%     29.8        
Jun 17 02:37 W 3   Clear   69 50     51%     29.8        
Jun 17 02:34 WSW 5   Clear   69 50     51%     29.8        
Jun 17 02:28 SW 7   Clear   69 50     50%     29.79        
Jun 17 02:07 WSW 9   Clear   69 49     49%     29.79        
Jun 16 22:23 SW 13   Clear   73 50     44%   72 29.79        
Jun 16 22:17 SW 12   Clear   73 50     44%   72 29.79        
Jun 16 22:14 SW 11   Clear   73 50     44%   72 29.79        
Jun 16 21:56 SW 13   Clear   74 50     43%   73 29.78        
Jun 16 21:50 WSW 12   Clear   74 50     43%   73 29.78        
Jun 16 21:41 WSW 14   Clear   74 49     42%   73 29.78        
Jun 16 21:35 WSW 12   Clear   74 49     41%   73 29.78        
Jun 16 21:14 WSW 12   Clear   76 49     39%   75 29.8        
Jun 16 21:08 WSW 11   Clear   76 49     39%   75 29.79        
Jun 16 21:02 WSW 14   Clear   76 49     39%   75 29.79        
Jun 16 20:59 WSW 12   Clear   76 49     39%   75 29.8        
Jun 16 20:53 WSW 12   Clear   76 49     39%   75 29.8        
Jun 16 20:47 WSW 15   Clear   77 50     39%   76 29.8        
Jun 16 20:44 WSW 14   Clear   77 50     39%   76 29.8        
Jun 16 20:32 WSW 12   Clear   77 49     38%   76 29.79        
Jun 16 20:29 WSW 13   Clear   77 49     38%   76 29.79        
Jun 16 19:33 WSW 16   Clear   82 49     32%   81 29.78        
Jun 16 16:15 SW 10   Clear   95 36     13%   90 29.76        
Jun 16 16:06 WSW 12   Clear   95 36     13%   90 29.76        
Jun 16 14:10 SSW 6   Clear   95 38     14%   91 29.79        
Jun 16 14:07 SSW 6   Clear   95 38     14%   91 29.79        
Jun 16 13:46 W 12   Clear   94 38     14%   90 29.8        
Jun 16 13:43 W 5   Clear   93 37     14%   89 29.8        
Jun 16 13:19 W 8   Clear   93 40     16%   89 29.81        
Jun 16 12:47 WSW 8   Clear   91 42     18%   87 29.82        
Jun 16 12:23 WSW 4   Clear   88 41     19%   84 29.83        
Jun 16 08:36 WSW 6   Clear   77 49     37%   76 29.85        
Jun 16 08:30 WSW 6   Clear   77 49     38%   76 29.85        
Jun 16 07:08 WSW 9   Clear   73 49     43%   72 29.84        
Jun 16 06:47 SW 10   Clear   72 50     46%   71 29.84        
Jun 16 06:41 SW 8   Clear   71 49     46%   70 29.84        
Jun 16 06:38 SW 10   Clear   71 50     47%   70 29.84        
Jun 16 06:32 SW 11   Clear   71 50     47%   70 29.84        
Jun 16 06:29 SW 11   Clear   71 50     47%   70 29.84        
Jun 16 06:23 SW 9   Clear   70 49     48%     29.84        
Jun 16 06:11 WSW 8   Clear   70 50     49%     29.84        
Jun 16 06:05 SW 11   Clear   70 50     49%     29.84        
Jun 16 05:59 WSW 7   Clear   70 50     50%     29.84        
Jun 16 05:38 SW 9   Clear   69 50     51%     29.84        
Jun 16 05:32 WSW 6   Clear   69 50     51%     29.84        
Jun 16 05:17 SW 8   Clear   69 50     51%     29.84        
Jun 16 05:08 WSW 9   Clear   70 51     51%     29.84        
Jun 16 05:02 WSW 6   Clear   70 51     51%     29.84        
Jun 16 04:45 SW 9   Clear   70 52     52%     29.84        
Jun 16 04:39 SW 9   Clear   70 52     52%     29.84        
Jun 16 04:24 WSW 7   Clear   71 52     51%   70 29.84        
Jun 16 04:15 WSW 7   Clear   71 52     51%   70 29.84        
Jun 16 04:12 WSW 8   Clear   71 51     50%   70 29.84        
Jun 16 03:43 SW 9   Clear   72 51     48%   71 29.83        
Jun 16 03:24 SW 10   Clear   72 50     46%   71 29.83        
Jun 16 03:12 SW 10   Clear   72 49     45%   71 29.83        
Jun 16 03:09 SW 9   Clear   72 49     44%   71 29.83        
Jun 16 03:00 SW 12   Clear   73 50     44%   72 29.84        
Jun 16 02:38 SW 11   Clear   74 48     40%   73 29.84        
Jun 16 02:32 SW 11   Clear   74 48     40%   73 29.84        
Jun 16 02:26 SW 11   Clear   74 47     39%   73 29.84        
Jun 16 02:23 SW 11   Clear   74 47     39%   73 29.84        
Jun 16 02:17 SW 12   Clear   75 48     39%   74 29.84        
Jun 16 02:14 SW 11   Clear   75 48     38%   74 29.84        
Jun 16 02:08 SW 11   Clear   75 48     38%   74 29.84        
Jun 16 02:02 SW 9   Clear   75 48     38%   74 29.84        
Jun 16 01:59 SW 10   Clear   75 48     38%   74 29.84        
Jun 16 01:53 SW 10   Clear   75 48     38%   74 29.84        
Jun 16 01:47 SW 9   Clear   75 48     39%   74 29.84        
Jun 16 01:44 SW 10   Clear   75 48     39%   74 29.84        
Jun 16 01:38 SW 11   Clear   74 47     39%   73 29.84        
Jun 16 01:33 SW 9   Clear   74 47     39%   73 29.85        
Jun 16 01:27 SW 10   Clear   74 47     39%   73 29.85        
Jun 16 01:24 SW 9   Clear   74 47     39%   73 29.85        
Jun 16 01:18 SW 11   Clear   74 47     39%   73 29.85        
Jun 16 01:12 SW 10   Clear   74 47     39%   73 29.85        
Jun 16 01:09 SW 12   Clear   74 47     39%   73 29.85        
Jun 16 01:03 SW 9   Clear   74 47     39%   73 29.85        
May 15 11:16 SW 4   Clear   76 46     34%   75 29.98        
May 15 10:43 NW 6   Clear   73 47     39%   72 29.98        
May 15 09:55 WSW 4   Clear   69 47     46%     29.98        
May 15 07:55 WSW 8   Clear   61 46     58%     29.98        
May 15 06:09 W 4   Clear   51 43     73%     29.94        
May 15 05:44 WNW 1   Clear   51 42     71%     29.94        
May 15 05:38 WNW 2   Clear   51 42     71%     29.94        
May 15 04:33 WNW 3   Clear   53 42     65%     29.93        
May 15 00:18 WSW 9   Clear   60 43     54%     29.93        
May 14 23:12 WSW 9   Clear   61 43     52%     29.92        
May 14 22:48 WSW 9   Clear   62 44     52%     29.91        
May 14 22:07 WSW 9   Clear   62 45     53%     29.92        
May 14 21:07 WSW 13   Clear   64 45     50%     29.9        
May 14 20:19 WSW 7   Clear   67 46     47%     29.88        
Notice The following observation data may not be complete
May 14 19:58 W 10   Clear     46      %     29.87        
May 14 18:52 WSW 13   Clear   73 43     34%   72 29.85        
May 14 18:13 WSW 11   Clear   77 43     30%   76 29.85        
May 14 16:33     Clear   83 40     22%   81 29.83        
May 14 15:27 W 13   Clear   84 39     20%   81 29.85        
May 14 12:48 E 5   Clear   80 42     26%   79 29.91        
May 14 10:47 Calm   Clear   72 44     37%   71 29.94        
May 14 08:13 WSW 6   Clear   61 44     54%     29.92        
May 14 06:12 W 5   Clear   54 44     68%     29.89        
May 14 04:03 WSW 11   Clear   55 45     68%     29.9        
May 14 01:52 SW 10   Clear   57 43     60%     29.9        
May 14 01:43 SW 9   Clear   57 43     60%     29.9        
May 13 23:17 SW 10   Clear   60 43     53%     29.9        
May 13 21:38 SW 9   Clear   62 44     51%     29.91        
Notice The following observation data may not be complete
May 13 19:59 WSW 13   Clear     44      %     29.88        
May 13 18:50 WSW 14   Clear   70 43     37%     29.86        
May 13 18:44 WSW 13   Clear   71 43     36%   69 29.87        
May 13 18:08 SW 10   Clear   74 42     32%   73 29.86        
May 13 17:47 WSW 11   Clear   74 41     31%   73 29.86        
Notice The following observation data may not be complete
May 13 15:03     Clear            %              
May 13 14:48 SW 10   Clear   74 40     29%   72 29.9        
May 13 13:54 SW 3   Clear   76 39     26%   75 29.92        
May 13 12:33 SW 4   Clear   73 39     29%   71 29.94        
May 13 12:15 W 4   Clear   73 40     30%   71 29.94        
May 13 12:00 WSW 3   Clear   72 41     32%   70 29.94        
May 13 11:45 SSW 6   Clear   72 41     33%   70 29.94        
May 13 09:53 SW 9   Clear   65 43     44%     29.95        
May 13 08:32 WSW 8   Clear   59 44     58%     29.95        
Notice The following observation data may not be complete
May 13 07:59     Clear            %              
May 13 06:17 WSW 10   Clear   51 43     74%     29.91        
May 13 05:47 WSW 10   Clear   51 43     75%     29.91        
May 13 01:38 WSW 7   Clear   52 44     73%     29.91        
May 13 00:51 WSW 9   Clear   53 44     71%     29.91        
May 12 23:39 SW 16   Clear   55 45     68%     29.91        
May 12 23:18 SW 13   Clear   55 45     68%     29.91        
May 12 23:03 SW 14   Clear   55 44     67%     29.9        
May 12 21:08 WSW 11   Clear   57 44     62%     29.88        
May 12 19:54 WSW 16   Clear   60 44     56%     29.85        
May 12 17:55 WSW 14   Clear   69 43     39%     29.82        
May 12 17:25 WSW 14   Clear   70 43     37%     29.83        
May 12 15:43 WSW 17   Clear   73 38     28%   71 29.82        
May 12 13:31 WSW 13   Clear   74 37     26%   72 29.85        
May 12 11:03 W 12   Clear   67 41     38%     29.88        
May 12 09:48 SW 10   Clear   63 41     44%     29.88        
May 12 06:18 WSW 9   Clear   51 44     77%     29.83        
May 12 06:03 W 8   Clear   51 44     76%     29.83        
May 12 05:39 W 6   Clear   51 43     75%     29.81        
May 12 02:58 WSW 12   Clear   54 44     69%     29.77        
May 12 02:44 WSW 12   Clear   54 44     68%     29.77        
May 12 02:06 WSW 11   Clear   54 44     68%     29.79        
May 11 22:29 WSW 11   Clear   56 45     67%     29.76        
May 11 22:14 WSW 10   Clear   56 45     67%     29.75        
May 11 22:02 SW 14   Clear   56 45     67%     29.75        
May 11 21:29 SW 13   Clear   57 46     66%     29.72        
Notice The following observation data may not be complete
May 11 19:29 SW 21   Clear and Windy     47      %     29.65        
May 11 19:09 SW 23   Clear and Windy   61 47     61%     29.65        
May 11 18:18 WSW 25   Clear and Windy   64 47     55%     29.63        
May 11 17:10 WSW 21   Clear and Windy   67 47     49%     29.65        
May 11 16:34 WSW 22   Clear and Windy   69 47     46%     29.64        
May 11 13:30 WSW 18   Clear   74 46     37%   73 29.66        
May 11 13:09 WSW 23   Clear and Windy   74 45     36%   73 29.67        
May 11 12:57 WSW 19   Clear   75 45     35%   74 29.67        
May 11 12:08 WSW 17   Clear   75 46     36%   74 29.69        
May 11 09:17 WSW 20   Clear and Windy   70 45     40%     29.71        
May 11 08:23 WSW 13   Clear   66 43     44%     29.72        
Jun 12 05:06 W 10   Clear   48 35     61% 44   29.95        
Jun 12 04:32 W 8   Clear   49 35     58% 46   29.94        
Jun 12 04:08 W 15   Clear   49 36     60% 43   29.93        
Jun 12 02:29 WNW 18   Clear   51 34     52%     29.94        
Jun 11 22:23 WSW 10   Clear   55 45     70%     29.91        
Jun 11 19:34 WNW 17   Clear   63 33     32%     29.84        
Jun 11 13:28 W 19   Clear   68 45     43%     29.81        
Jun 11 11:58 W 18   Clear   67 45     45%     29.8        
Jun 11 09:15 WSW 18   Clear   61 43     51%     29.8        
Jun 11 08:39 WSW 19   Clear   60 43     53%     29.78        
Jun 11 08:30 WSW 17   Clear   60 42     51%     29.78        
Jun 11 07:50 WSW 20   Clear and Windy   56 41     57%     29.78        
Jun 11 07:14 WSW 17   Clear   54 42     63%     29.78        
Jun 11 07:05 WSW 17   Clear   53 41     64%     29.78        
Jun 11 01:02 WSW 15   Clear   59 44     58%     29.76        
Jun 11 00:53 WSW 17   Clear   59 45     59%              
Jun 11 00:47 WSW 20   Clear and Windy   59 44     58%     29.75        
Jun 11 00:32 WSW 18   Clear   60 44     56%              
Jun 11 00:23 WSW 22   Clear and Windy   60 44     56%     29.74        
Jun 11 00:05 SW 12   Clear   60 45     58%              
Jun 10 23:38 WSW 20   Clear and Windy   60 46     59%              
Jun 10 23:23 WSW 19   Clear   61 47     59%              
Jun 10 23:20 WSW 17   Clear   61 47     59%     29.76        
Jun 10 22:17 WSW 15   Clear   61 48     63%     29.78        
Jun 10 21:32 WSW 18   Clear   62 49     62%              
Jun 10 20:38 WSW 18   Clear   63 49     60%     29.76        
Jun 10 19:38 WSW 18   Clear   67 48     50%              
Jun 10 19:32 WSW 16   Clear   67 48     50%     29.75        
Jun 10 18:03 WSW 23   Clear and Windy   70 49     48%     29.74        
Jun 10 17:54 WSW 21   Clear and Windy   71 50     48%   70          
Jun 10 14:16 WSW 16   Clear   75 47     37%   74 29.75        
Jun 10 13:13 W 14   Clear   75 45     34%   74 29.79        
Jun 10 11:43 W 20   Clear and Windy   73 47     39%   72 29.8        
Jun 10 09:34 W 16   Clear   69 48     47%     29.82        
Jun 10 07:33 WSW 9   Clear   61 50     67%     29.81        
Jun 10 00:22 SW 14   Clear   62 52     70%     29.83        
Jun 09 21:04 SW 12   Clear   69 54     58%     29.81        
Notice The following observation data may not be complete
Jun 09 19:40     Clear            %              
Jun 09 18:15 WSW 19   Clear   79 53     40%   78 29.78        
Jun 09 16:42 WSW 15   Clear   83 50     32%   81 29.78        
Jun 09 14:13 SW 19   Clear   84 50     31%   82 29.82        
Jun 09 13:16 WSW 14   Clear   84 49     30%   82 29.87        
Jun 09 13:04 WSW 15   Clear   84 48     29%   82 29.87        
Jun 09 07:27 WSW 8   Clear   65 43     45%     29.89        
Jun 09 07:24 WSW 10   Clear   65 43     45%     29.89        
Jun 09 03:42 SW 10   Clear   63 41     44%     29.88        
Jun 09 00:27 SW 10   Clear   69 33     26%     29.88        
Notice The following observation data may not be complete
Jun 08 23:40     Clear            %              
Jun 08 21:53 W 7   Clear   73 28     19%   71 29.9        
Jun 08 17:37 W 17   Clear   87 37     17%   84 29.88        
Jun 08 09:39 WSW 11   Clear   76 43     31%   75 29.95        
Jun 08 09:12 SW 10   Clear   75 44     33%   74 29.95        
Jun 08 08:27 WSW 9   Clear   70 45     40%     29.95        
Jun 08 08:18 WSW 9   Clear   69 45     42%     29.95        
Jun 08 05:53 SW 9   Clear   63 44     50%     29.93        
Jun 08 05:49 WSW 10   Clear   63 44     50%     29.93        
Jun 08 03:43 WSW 8   Clear   66 43     43%     29.91        
Jun 08 02:50 WSW 11   Clear   67 42     40%     29.91        
Jun 07 22:38 SW 16   Clear   71 40     33%   69 29.89        
Jun 07 20:15 W 8   Clear   79 30     17%   77 29.86        
Jun 07 19:03 WSW 16   Clear   85 25     11%   82 29.84        
Jun 07 18:48 WSW 17   Clear   86 27     12%   82          
Jun 07 11:34 SW 5   Clear   90 31     12%   86 29.91        
Jun 07 07:32 WSW 5   Clear   74 41     30%   73 29.91        
Jun 07 06:44 Calm   Clear   68 39     34%     29.87        
Jun 05 22:28 WSW 8   Clear   75 41     30%   74 29.89        
Jun 05 20:25 WSW 9   Clear   84 44     25%   82 29.86        
Jun 05 13:31 W 7   Clear   96 31     10%   90 29.86        
Jun 05 13:01 WNW 7   Clear   97 31     10%   91 29.87